This demonstration page uses our WeatherBlox Daily Observations layout. Learn more.

Left ArrowRight Arrow

39.92423, -83.80882

Hourly Observations for January 7, 2019

Temp ( °F °C ) Dew Point ( °F °C ) Humidity (%) Winds ( mph kmh ) Pressure ( in mb ) Visibility ( mi km ) Precip ( " mm )
12:56 am 00:56 Clear 37 2.8 30 -1.1 76 76 ESE 15 24 30.26 1025 10 16 N/A
1:56 am 01:56 Mostly Clear 36 2.2 30 -1.1 79 79 E 16 26 30.23 1024 10 16 N/A
2:56 am 02:56 Mostly Clear 36 2.2 30 -1.1 79 79 E 18 30 30.18 1022 10 16 N/A
3:56 am 03:56 Clear 36 2.2 30 -1.1 79 79 ESE 15 24 30.20 1023 10 16 N/A
4:56 am 04:56 Clear 36 2.2 30 -1.1 79 79 ESE 17 28 30.19 1022 10 16 N/A
5:56 am 05:56 Clear 36 2.2 30 -1.1 79 79 ESE 14 22 30.18 1022 10 16 N/A
6:56 am 06:56 Clear 36 2.2 31 -0.6 82 82 E 18 30 30.16 1021 10 16 N/A
7:56 am 07:56 Clear 36 2.2 31 -0.6 82 82 ESE 15 24 30.16 1021 10 16 N/A
8:56 am 08:56 Sunny 37 2.8 31 -0.6 79 79 ESE 13 20 30.12 1020 10 16 N/A
9:56 am 09:56 Sunny 38 3.3 33 0.6 83 83 SE 14 22 30.09 1019 10 16 N/A
10:56 am 10:56 Sunny 39 3.9 34 1.1 82 82 SSE 17 28 30.06 1018 10 16 N/A
11:56 am 11:56 Sunny 42 5.6 37 2.8 82 82 SE 15 24 30.01 1016 10 16 N/A
12:56 pm 12:56 Sunny 44 6.7 39 3.9 83 83 SE 10 17 29.94 1014 10 16 N/A
1:56 pm 13:56 Sunny 47 8.3 41 5 80 80 SSE 14 22 29.90 1013 10 16 N/A
2:56 pm 14:56 Mostly Cloudy 49 9.4 43 6.1 80 80 S 13 20 29.87 1012 10 16 N/A
3:56 pm 15:56 Cloudy with Light Rain 52 11.1 44 6.7 75 75 S 13 20 29.84 1011 10 16 N/A
4:56 pm 16:56 Cloudy 54 12.2 44 6.7 69 69 SSW 23 37 29.84 1010 10 16 N/A
5:56 pm 17:56 Cloudy 55 12.8 44 6.7 67 67 SW 22 35 29.85 1011 10 16 N/A
6:56 pm 18:56 Cloudy 55 12.8 44 6.7 67 67 SW 20 31 29.85 1011 10 16 N/A
7:56 pm 19:56 Cloudy 55 12.8 45 7.2 69 69 SW 21 33 29.86 1011 10 16 N/A
8:27 pm 20:27 Cloudy 54 12 46 8 77 77 SW 17 28 29.85 1011 10 16 N/A
8:56 pm 20:56 Cloudy 55 12.8 47 8.3 74 74 SW 21 33 29.88 1012 10 16 N/A
9:03 pm 21:03 Cloudy 55 13 46 8 72 72 SW 17 28 29.85 1011 10 16 N/A
9:56 pm 21:56 Cloudy 55 12.8 48 8.9 77 77 SW 16 26 29.91 1013 10 16 N/A
10:56 pm 22:56 Mostly Cloudy 54 12.2 48 8.9 80 80 WSW 18 30 29.91 1013 10 16 N/A
11:56 pm 23:56 Mostly Cloudy 53 11.7 49 9.4 86 86 SW 16 26 29.91 1013 10 16 N/A

Powered by AerisWeather